Home > Weather > Abilene > Past weeks

Flag for U.S.A. Weather for the Past 2 Weeks in Abilene, Texas, U.S.A.

Now
48 °F

Passing clouds.


Feels Like: 40 °F
Forecast: 35 / 54 °F
Wind: 24 mph from Northwest

Location: Abilene Regional Airport

Current Time: Feb 5, 2016 at 9:54:37 PM

Latest Report: Feb 5, 2016 at 8:52 PM


Visibility: 9 mi

Pressure: 30.24 "Hg (28.38 "Hg at 524m altitude)

Humidity: 32%

Dew point: 19 °F

Location of AbileneLocation

Historic Weather in Abilene — Graph

°F

Abilene Temperature Yesterday

Maximum temperature yesterday: 55 °F (at 4:52 PM)
Minimum temperature yesterday: 24 °F (at 7:52 AM)
Average temperature yesterday: 39 °F

High & Low Weather Summary for the Past Weeks

 TemperatureHumidityPressure
High82 °F (Feb 1, 3:52 PM)92% (Jan 27, 8:52 AM)30.50 "Hg (Jan 27, 8:52 AM)
Low24 °F (Feb 4, 7:52 AM)12% (Jan 30, 4:52 PM)29.36 "Hg (Feb 1, 4:52 PM)
Average48 °F49%30.04 "Hg
* Reported Jan 21 7:52 PM — Feb 5 7:52 PM, Abilene, Weather by CustomWeather, © 2016

Note: Actual official high and low records may vary slightly from our data, if they occured in-between our weather recording intervals... More about our weather records

Advertising

Abilene Weather History for the Previous 24 Hours

 ConditionsComfort  
Time TempWeatherWind HumidityBarometerVisibility
7:52 PM
Fri, Feb 5
51 °FPassing clouds.16 mph28%30.23 "Hg10 mi
6:52 PM53 °FPassing clouds.12 mph27%30.20 "Hg10 mi
5:52 PM56 °FOvercast.8 mph29%30.18 "Hg10 mi
4:52 PM57 °FPassing clouds.12 mph27%30.18 "Hg10 mi
3:52 PM57 °FSunny.16 mph27%30.18 "Hg10 mi
2:52 PM57 °FSunny.16 mph29%30.19 "Hg10 mi
1:52 PM56 °FSunny.17 mph29%30.20 "Hg10 mi
12:52 PM54 °FSunny.25 mph29%30.26 "Hg10 mi
11:52 AM50 °FSunny.20 mph33%30.31 "Hg10 mi
10:52 AM48 °FSunny.17 mph36%30.34 "Hg10 mi
9:52 AM41 °FSunny.15 mph45%30.34 "Hg10 mi
8:52 AM38 °FSunny.14 mph51%30.34 "Hg10 mi
7:52 AM36 °FSunny.13 mph54%30.33 "Hg10 mi
6:52 AM36 °FClear.13 mph54%30.32 "Hg10 mi
5:52 AM36 °FClear.13 mph54%30.32 "Hg10 mi
4:52 AM35 °FClear.8 mph56%30.32 "Hg10 mi
3:52 AM36 °FClear.7 mph52%30.32 "Hg10 mi
2:52 AM37 °FClear.8 mph50%30.31 "Hg10 mi
1:52 AM39 °FClear.10 mph46%30.31 "Hg10 mi
12:52 AM37 °FClear.10 mph48%30.32 "Hg10 mi
11:52 PM
Thu, Feb 4
38 °FClear.12 mph46%30.33 "Hg10 mi
10:52 PM35 °FClear.9 mph50%30.35 "Hg10 mi
9:52 PM39 °FClear.5 mph43%30.36 "Hg10 mi
Weather by CustomWeather, © 2016

See weather overviewHow to use our weather pages